Upstate Blood Drives

OUR LIST OF

Blood Drives

Search for a drive near you below!

DateNameAddressStart TimeEnd Time
01/19/2022Dixie High School 1ABE1 Haynes Street Due West SC 2963907:30 AM03:30 PM
01/19/2022Duke Energy - Oconee Nuclear 7ABC155 E Pickens Hwy Seneca SC 2967208:00 AM04:00 PM
01/19/2022Orian Rugs 10RO2415 SC Hwy 81 N Anderson SC 2962110:00 AM12:00 PM
01/19/2022Presbyterian College 6AAQ301 5th Avenue - GDH Parking Lot Clinton SC 2932511:00 AM04:00 PM
01/19/2022SCC - Union Campus 9USD1401 Furman L. Fendley Highway UNION SC 2937901:00 PM03:00 PM
01/19/2022The Peoples Bank - Anderson 10PBA3901 Clemson Blvd ANDERSON SC 2962101:00 PM04:30 PM
01/19/2022Walmart - Anderson 10WA651 HWY 28 Bypass Anderson SC 2962611:00 AM07:00 PM
01/19/2022Walmart - Boiling Springs 9AAX4000 Highway 9 Boiling Springs SC 2931601:00 PM06:00 PM
01/19/2022Walmart - Simpsonville 3CAX3950 Grandview Drive Simpsonville SC 2968001:00 PM06:00 PM
01/19/2022Walmart Newberry 13AL2812 Main Street Newberry SC 2910801:00 PM06:00 PM
01/19/2022Wesley Court Assisted Living 9WCA916 Wesley Court Boiling Springs SC 2931611:00 AM03:00 PM
01/20/2022Abbeville Area Community Drive CLT14052153 SC-201 Abbeville SC 2962009:00 AM02:00 PM
01/20/2022AC Hotel CLT1320241 E Broad Street Greenville SC 2960111:00 AM04:00 PM
01/20/2022Amsted Rail 3ASD107 Southchase Blvd Fountain Inn SC 2964410:30 AM01:00 PM
01/20/2022AutoZone Distribution Center 17AZ11533 Georgia Hwy 17 Lavonia GA 3055305:00 AM10:00 AM
01/20/2022Chestnut Ridge Baptist Church CLT12997499 Chestnut Ridge Road Laurens SC 2936002:30 PM07:30 PM
01/20/2022Eurokera North America 3AVT140 Southchase Boulevard Fountain Inn SC 2964401:30 PM05:00 PM
01/20/2022Outback - Spartanburg 9SOB1646 JB White SR Blvd Spartanburg SC 2930103:00 PM08:00 PM
01/20/2022Sealed Air Corporation - Simpsonville 3AOC803 N Maple St Simpsonville SC 2968103:00 PM07:00 PM
01/20/2022Three Rivers Apartment Complex CLT11557900 Gracern Rd Columbia SC 2921002:00 PM06:00 PM
01/20/2022Toccoa-Stephens County Public Library CLT1344353 W Savanna Street Toccoa GA 3057710:00 AM12:30 PM
01/20/2022UPS Inside Sales 3MUA700 Executive Center Drive Suite Greenville SC 2961508:00 AM12:00 PM
01/20/2022Walmart - Toccoa 17CA3886 Georgia Highway 17 Toccoa GA 3057702:30 PM06:30 PM
01/20/2022Yanfeng 3BHI101 International Blvd Fountain Inn SC 2964406:30 AM10:30 AM
01/20/2022YMCA Greenwood 4AHJ1710 Calhoun Road Greenwood SC 2964903:00 PM07:00 PM
01/21/2022Community Wellness Fair at Cateechee CLT14037140 Cateechee Trail Hartwell GA 3064301:00 PM06:00 PM
01/21/2022Joan Herlong & Associates-Real Estate and CLT142711 McDaniel Greene Greenville SC 2960110:00 AM02:00 PM
01/21/2022Rotary Club of Anderson @Anderson Free Cl CLT14194414 North Fant Street Anderson SC 2962109:00 AM02:00 PM
01/21/2022Taylors Auto Service 34CF325 Chapin Road Chapin SC 2903609:00 AM02:00 PM
01/21/2022Village at Southlake CLT12104123 Gibson Rd Lexington SC 2907203:30 PM06:30 PM
01/21/2022Walmart - Easley 8ACC115 Rolling Hills Circle Easley SC 2964001:00 PM06:00 PM
01/21/2022Walmart - Greer 9AAG14055 Wade Hampton Boulevard Greer SC 2965102:00 PM07:00 PM
01/21/2022Walmart - Seneca 7ABK1636 Sandifer Boulevard Seneca SC 2967802:00 PM06:00 PM
01/21/2022Walmart - Taylors 3AUC3027 Wade Hampton Boulevard Taylors SC 2968701:00 PM06:00 PM
01/21/2022Walmart - Union 9ABL513 N Duncan By-Pass Union SC 2937902:00 PM06:00 PM
01/22/2022Culvers- Laurens Rd CLT142902409 Laurens Rd Greenville SC 2960711:00 AM03:00 PM
01/22/2022Glen Lake Community 87GEN202 Stewarts Landing BOILING SPRINGS SC 2931608:30 AM10:30 AM
01/22/2022Hampton Station 9HAM1320 Hampton Ave #5a GREENVILLE SC 2960111:00 AM03:00 PM
01/22/2022Old Navy - Harbison 4ODCA140 Harbison Blvd COLUMBIA SC 2921211:00 AM03:00 PM
01/22/2022Plankowner Brewing 9PTB109 Sloane Garden Road Boiling Spring SC 2931601:00 PM04:00 PM
01/22/2022Prisma Health Richland Hospital 87PRC5 Richland Medical Park Dr COLUMBIA SC 2920310:00 AM03:00 PM
01/22/2022Pumpkintown Fire Department 8ZAW4205 Pumpkintown Highway Pickens SC 2967110:00 AM12:00 PM
01/22/2022Regal Cinemas Columbiana Grande 7CIN1250 Bower Parkway COLUMBIA SC 2921205:00 PM07:00 PM
01/22/2022Sealed Air Corporation - Simpsonville 3AOC803 N Maple St Simpsonville SC 2968112:00 PM04:00 PM
01/22/2022Walmart - Central 8AZA1286 Eighteen Mile Road Central SC 2963003:00 PM07:00 PM
01/22/2022Walmart - Gaffney 9ZAA165 Walton Drive Gaffney SC 2934102:00 PM07:00 PM
01/22/2022Walmart - Simpsonville 3CAX3950 Grandview Drive Simpsonville SC 2968001:00 PM06:00 PM
01/22/2022Walmart - Woodruff Road 3AZN1451 Woodruff Road Greenville SC 2960705:15 PM07:15 PM
01/23/2022Jamil Shrine Temple CLT12463206 Jamil Rd Columbia SC 2921010:00 AM03:00 PM
01/23/2022Lee Road Baptist Church 3APA1503 East Lee Road Taylors SC 2968705:30 PM08:00 PM
01/23/2022Prisma Health Richland Hospital 87PRC5 Richland Medical Park Dr COLUMBIA SC 2920312:00 PM05:00 PM
01/23/2022The Southern Growl 87SGR155 N Buncombe Rd GREER SC 2965101:00 PM06:00 PM
01/23/2022Tyger River Presbyterian Church 9TRP5961 Reidville Rd. Moore SC 2936908:00 AM01:00 PM
01/23/2022Walmart - Boiling Springs 9AAX4000 Highway 9 Boiling Springs SC 2931602:00 PM07:00 PM
01/23/2022Walmart - Laurens 6ACA922 East Main Street Laurens SC 2936001:00 PM06:00 PM
01/23/2022Walmart - Taylors 3AUC3027 Wade Hampton Boulevard Taylors SC 2968702:00 PM07:00 PM
01/24/2022Eden Terrace CLT112142780 East Main Street Spartanburg SC 2930712:00 PM03:30 PM
01/24/2022Greene Crossing - Columbia CLT11972708 Pulaski St. Columbia SC 2920101:00 PM06:00 PM
01/24/2022Hampton Memorial Library 8PCL304 Biltmore Road Easley SC 2964009:30 AM12:00 PM
01/24/2022SCC - Downtown Campus 9SCC220 E Kennedy St. Spartanburg SC 2930202:30 PM05:30 PM
01/24/2022SCC - Giles Campus 9CCM800 Brisack Rd. (formerly Central) Spartanburg SC 2930309:00 AM02:00 PM
01/24/2022Spartanburg Area Mental Health 9MEN250 Dewey Avenue SPARTANBURG SC 2930310:00 AM12:30 PM
01/24/2022Spartanburg Methodist College 9BBN1000 Powell Mill Road Spartanburg SC 2930110:00 AM03:00 PM
01/24/2022UofSC Kappa Kappa Gamma Sorority 89KAP520 Lincoln Street COLUMBIA SC 2920112:00 PM05:00 PM
01/24/2022Village Library CLT14181124 N Catherine St. Pickens SC 2967109:30 AM12:00 PM
01/24/2022Walmart - Easley 8ACC115 Rolling Hills Circle Easley SC 2964002:00 PM06:00 PM
01/24/2022Walmart - Pickens 8WAP2637 Gentry Memorial Hwy Pickens SC 2967102:00 PM06:00 PM
01/25/2022Anderson University 10CO316 Boulevard (Thrift Library & Abney Athletic Cen Anderson SC 2962111:30 AM04:30 PM
01/25/2022Anderson University 10CO316 Boulevard (Thrift Library & Abney Athletic Cen Anderson SC 2962111:30 AM04:30 PM
01/25/2022Anderson University 10CO316 Boulevard (Thrift Library & Abney Athletic Cen Anderson SC 2962111:30 AM04:30 PM
01/25/2022Ascend Materials 4ABW1515 Hwy 246 S Greenwood SC 2964607:00 AM11:00 AM
01/25/2022Bon Secours St. Francis Health System 3AJYOne St. Francis Drive Greenville SC 2960110:00 AM03:00 PM
01/25/2022Chick-fil-A - Taylors 3CXP2801 Wade Hampton Blvd. Taylors SC 2968702:00 PM07:00 PM
01/25/2022Chick-fil-A - Taylors 3CXP2801 Wade Hampton Blvd. Taylors SC 29687
01/25/2022Chick-fil-A - Taylors 3CXP2801 Wade Hampton Blvd. Taylors SC 2968702:00 PM07:00 PM
01/25/2022Emerald City Rotary CLub CLT14287120 Main Street Greenwood SC 2964601:00 PM06:00 PM
01/25/2022Oconee School District 7JNE414 South Pine Street Walhalla SC 2969111:00 AM04:00 PM
01/25/2022Smile Doctors of Gainesville CLT142061071 S Enota Dr NE Suite A. Gainesville GA 3050112:00 PM05:00 PM
01/26/2022Canal Insurance 3MLK400 East Stone Avenue Greenville SC 2960111:00 AM02:30 PM
01/26/2022Cornerstone Presbyterian Church CLT112085637 Bush River Rd Columbia SC 2921204:45 PM08:45 PM
01/26/2022First Baptist Church - Toccoa 17FT475 East Tugalo Street Toccoa GA 3057701:00 PM04:00 PM
01/26/2022Greenville Office Supply 3MOZ310 E. Frontage Road Greer SC 2965109:00 AM12:00 PM
01/26/2022MSA - LEXINGTON CLT14155171-A Monroe Lane Lexington SC 2907209:00 AM04:00 PM
01/26/2022Saati - Fountain Inn 3SAT201 Fairview Street Ext. Greenville SC 2964409:15 AM12:15 PM
01/26/2022SCC Tyger River Campus 9CCT1875 E. Main Street Duncan SC 2933402:30 PM04:30 PM
01/26/2022SCVR Disability- Greenville 3AJA301 North Main Street Greenville SC 2960110:00 AM12:30 PM
01/26/2022Standard Motor Products 3AGO5150 Pelham Road Greenville SC 2961502:00 PM06:00 PM
01/26/2022Stevens Aerospace and Defense Systems 3ANA600 Delaware Street Greenville SC 2960508:30 AM01:30 PM
01/26/2022Temple Baptist Church & Christian Academy CLT123592905 Standridge Road Anderson SC 2962502:30 PM06:30 PM
01/26/2022Vets Helping Vets 10VHElks Lodge 225 McGee Road Anderson SC 2962509:00 AM02:00 PM
01/26/2022Wade Hampton High School 3ALK100 Pine Knoll Drive Greenville SC 2960909:00 AM03:00 PM
01/26/2022Walmart - Anderson 10WA651 HWY 28 Bypass Anderson SC 2962611:00 AM07:00 PM
01/26/2022Yoder's Building Supply 7YBS500 E. Fairplay Blvd - PO Box 318 Fair Play SC 2964306:30 AM10:30 AM
01/27/2022Borg Warner 7AEA15545 Wells Hwy. Seneca SC 2967808:00 AM11:00 AM
01/27/2022City Hall CLT11395221 E N First Street Seneca SC 2967909:00 AM12:00 PM
01/27/2022Clemson - Alpha Phi Omega 8APO511 Fort Hill Street Clemson SC 2963111:00 AM04:00 PM
01/27/2022Hal Girard State Farm CLT12064520 Columbia Ave Lexington SC 2907209:00 AM01:00 PM
01/27/2022Legacy Park. CLT14291336 Rocky Slope Rd. Greenville SC 2960710:00 AM02:00 PM
01/27/2022Pelican's Sno Balls CLT122961912 Rosewood Dr Columbia SC 2920501:00 PM06:00 PM
01/27/2022Plastic Products Company-Seneca CLT13812199 Keowee Business Parkway Seneca SC 2967802:00 PM04:30 PM
01/27/2022Sherman College of Chiropractic 9ACL2020 Springfield Rd. Boiling Springs SC 2931611:00 AM04:00 PM
01/27/2022St. Francis Eastside Hospital 3BAC125 Commonwealth Drive Greenville SC 2961510:00 AM03:00 PM
01/27/2022The Dream Center CLT14135111 Hillcrest Dr. Easley SC 2964010:00 AM03:00 PM
01/27/2022The Peoples Bank - Iva 10PBI801 E. Front St. IVA SC 2965508:30 AM11:30 AM
01/27/2022Tindall Corporate Duncan CLT133361320 Howell Rd Duncan SC 2933408:30 AM11:00 AM
01/27/2022Tindall Corporation 9GMG2273 Hayne St. Spartanburg SC 2930101:00 PM05:00 PM
01/27/2022Walmart - Easley 8ACC115 Rolling Hills Circle Easley SC 2964002:00 PM06:00 PM
01/28/2022Berry Shoals Apartments 84BR200 Tralee Drive DUNCAN SC 2933402:00 PM05:00 PM
01/28/2022Clemson - Alpha Phi Omega 8APO511 Fort Hill Street Clemson SC 2963111:00 AM04:00 PM
01/28/2022Clemson - Alpha Phi Omega 8APO511 Fort Hill Street Clemson SC 2963111:00 AM04:00 PM
01/28/2022Costco Columbia GG123507 Piney Grove Road COLUMBIA SC 2921003:00 PM08:00 PM
01/28/2022Greer Memorial Hospital - Prisma 3ALY830 South Buncombe Road Greer SC 2965009:30 AM12:00 PM
01/28/2022Lancaster Spartanburg 9BPZ1310 Union Street Spartanburg SC 2930209:00 AM12:00 PM
01/28/2022Red Lobster Anderson CLT114643426 Clemson Blvd Anderson SC 2962103:00 PM08:00 PM
01/28/2022Red Lobster Greenville CLT114201940 Wade Hampton Blvd Greenville SC 2961503:00 PM08:00 PM
01/28/2022Red Lobster Spartanburg CLT11465170 E Blackstock Road Spartanburg SC 2930103:00 PM08:00 PM
01/28/2022Walmart - Gaffney 9ZAA165 Walton Drive Gaffney SC 29341
01/28/2022Walmart - Greer 9AAG14055 Wade Hampton Boulevard Greer SC 2965102:00 PM07:00 PM
01/28/2022Walmart - Simpsonville 3CAX3950 Grandview Drive Simpsonville SC 2968005:00 PM08:30 PM
01/28/2022Walmart - Union 9ABL513 N Duncan By-Pass Union SC 2937902:00 PM06:00 PM
01/29/2022Cobalt Springs Apartments 8COBS216 Pinecroft Drive TAYLORS SC 2968710:00 AM03:00 PM
01/29/2022Community Blood Drive @ Five Forks Librar CLT11649104 Sunnydale Dr Simpsonville SC 2968110:00 AM03:00 PM
01/29/2022FBO - Brianna Neel CLT14250743 Wilson Rd. Newberry SC 2910810:00 AM03:00 PM
01/29/2022Half Mile Lake Subdivision 3AXH241 Half Mile Way Greenville SC 2960910:00 AM02:00 PM
01/29/2022Landon's 4th Birthday Blood Drive CLT14207529 Farrs Bridge Rd. Greenville SC 2961101:00 PM05:00 PM
01/29/2022NCNW Greenville County (SC) Section CLT14215801 W. Washington Street Greenville SC 2960110:00 AM02:00 PM
01/29/2022The Masters Baptist Church 87MAS169 Subertown Road WHITMIRE SC 2917809:00 AM02:00 PM
01/29/2022The Woodcreek Club 87WCR301 Club Ridge Rd ELGIN SC 2904511:00 AM03:00 PM
01/29/2022Travelers Rest United Methodist Church 3APZ19 South Main Street Travelers Rest SC 2969010:00 AM02:00 PM
01/29/2022Walmart - Union 9ABL513 N Duncan By-Pass Union SC 2937902:00 PM06:00 PM
01/29/2022Walmart Hillcrest CLT142432151 E. Main Street Spartanburg SC 2930710:00 AM03:00 PM
01/29/2022White Duck Taco - Airport Rd CLT14275301 Airport Road Greenville SC 2960711:00 AM04:00 PM
01/30/2022Fernwood Baptist Church 9FER200 Fernwood Drive Spartanburg SC 2930709:00 AM11:30 AM
01/30/2022Harbison Recreation Community Center 89HAR106 Hillpine Rd COLUMBIA SC 2921201:00 PM06:00 PM
01/30/2022Laurel Hill Baptist Church NEW CLT12627101 River Fork Rd Waterloo SC 2938408:00 AM12:00 PM
01/30/2022Lyman United Methodist Church 9UMC106 Groce Rd Lyman SC 2936508:30 AM01:30 PM
01/30/2022Spartan 16 Regal 9ABV855 Spartan Blvd. Spartanburg SC 2930102:00 PM04:30 PM
01/30/2022St. John's Episcopal Church CLT142652827 Wheat Street Columbia SC 2920501:00 PM06:00 PM
01/30/2022Walmart - Boiling Springs 9AAX4000 Highway 9 Boiling Springs SC 2931602:00 PM06:00 PM
01/30/2022Walmart - Laurens 6ACA922 East Main Street Laurens SC 2936001:00 PM06:00 PM
01/30/2022Walmart - Taylors 3AUC3027 Wade Hampton Boulevard Taylors SC 2968702:00 PM07:00 PM
01/31/2022Alpha Phi Women's Heart Health Week Blood CLT14276105 Sikes Hall Clemson SC 29634
01/31/2022Pickens County Library System - Central - CLT12795105 Common Way Central SC 2963009:30 AM12:00 PM
01/31/2022Siemens 9ABH1320 Old Georgia Road Roebuck SC 2937610:00 AM03:00 PM
01/31/2022Walmart - Pickens 8WAP2637 Gentry Memorial Hwy Pickens SC 2967102:00 PM06:00 PM
01/31/2022William Barnet & Son 9HKW1300 Hayne Street Spartanburg SC 2930109:00 AM11:30 AM
02/01/2022Draexlmaier 3RGZ1751 E. Main Street Duncan SC 2933411:00 AM04:00 PM
02/01/2022Grace Management Group 9GGN951 South Pine Street Spartanburg SC 2930210:00 AM02:00 PM
02/01/2022Greenwood Genetic Center 4ADR113 Gregor Mendel Circle Greenwood SC 2964611:00 AM03:00 PM
02/01/2022Jackson Stanley Realtors- Anderson office 10JS2008 N. Main St. Anderson SC 2962101:00 PM06:00 PM
02/01/2022Patewood Medical Campus - Mobile 3RDL200 Patewood Drive Greenville SC 2961501:00 PM05:00 PM
02/01/2022Piedmont Women's Center CLT136331143 Grove Road Greenville SC 2960508:00 AM10:30 AM
02/01/2022Spartanburg County Sheriff's Office 9CAF8045 Howard Street Spartanburg SC 2930311:00 AM02:00 PM
02/02/2022Budweiser - Spartanburg 9GGV6645 Pottery Road Spartanburg SC 2930301:00 PM04:00 PM
02/02/2022Eastern Industrial Supplies Inc - Office 3XVA11 Caledon Court Greenviille SC 2961511:00 AM02:00 PM
02/02/2022Fairview Baptist Church 3AQV1300 Locust Hill Road Greer SC 2965103:00 PM06:00 PM
02/02/2022Highway 11 Manufacturing Alliance CLT12810123 Commerce Way Westminster SC 2969307:00 AM12:00 PM
02/02/2022Midlands Regional Rehabilitation Hospital CLT1409120 Pinnacle Pkwy ELGIN SC 2904510:00 AM03:00 PM
02/02/2022Resurgent Capital Services 3ZRM55 Beattie Place Greenville SC 2960110:00 AM01:00 PM
02/02/2022Timken - Gaffney CLT13386100 Timken Rd Gaffney SC 2934106:30 AM11:30 AM
02/02/2022Walmart - Anderson 10WA651 HWY 28 Bypass Anderson SC 2962611:00 AM07:00 PM

7:00 AM- 7:00 PM Weekday

7:00 AM- 5:00 PM Weekend

Hours

7:00 AM- 5:00 PM Weekday

7:00 AM- 3:30 PM Weekend

Platelet Hours

NEED MORE ANSWERS?

Contact Us